Location: Mt. Chestnut Observatory
(40.9038°N, 79.9956°W)
Time: 19:14:59
(UTC-05:00)

Daily predictions for brighter satellites

Satellite Brightness Start Highest point End
(mag) Time Altitude Azimuth Time Altitude Azimuth Time Altitude Azimuth
NOSS 3-1 (C) 4.2 17:06:51 10° NW 17:14:30 86° WSW 17:22:53 10° SSE
Cosmos 1484 Rocket 4.4 17:18:56 10° E 17:20:58 14° ENE 17:22:58 10° NE
ATLAS CENTAUR R/B 4.1 17:20:21 10° WNW 17:22:08 12° NW 17:23:53 10° NNW
Cosmos 1602 3.7 17:18:20 10° N 17:22:18 86° E 17:26:12 10° S
Cosmos 1238 Rocket 4.2 17:22:45 10° ESE 17:23:47 11° E 17:24:48 10° ENE
PAYLOAD A 3.8 17:20:18 10° SSE 17:25:01 73° ENE 17:29:56 10° N
IRS-1A Rocket 4.4 17:21:29 10° SSE 17:26:59 83° WSW 17:32:32 10° NNW
Cosmos 2154 Rocket 4.1 17:23:08 10° N 17:29:23 88° W 17:35:38 10° S
IDEFIX/ARIANE 42P 2.7 17:26:01 10° SSE 17:31:04 54° ENE 17:36:08 10° N
USA 32 4.5 17:30:25 10° SSE 17:35:15 40° E 17:40:06 10° NNE
BREEZE M DEB (TANK) 3.7 17:35:10 10° NW 17:37:42 25° NNE 17:42:21 11° ENE
Okean 1 Rocket 3.6 17:34:29 10° NNW 17:38:46 63° W 17:43:03 10° S
Cosmos 1536 2.8 17:35:32 10° N 17:39:37 82° E 17:43:41 10° S
COSMO-SKYMED 1 3.6 17:40:19 10° NE 17:43:57 25° E 17:47:34 10° SSE
Cosmos 1461 3.7 17:40:30 10° NW 17:44:21 52° WSW 17:48:12 10° SSE
Hubble Space Telescope 3.5 17:43:39 10° SW 17:45:22 12° S 17:47:04 10° SSE
Cosmos 1544 Rocket 4.1 17:41:54 10° N 17:46:05 38° ENE 17:50:14 10° SSE
Cosmos 1975 Rocket 3.0 17:44:18 10° S 17:48:36 84° E 17:52:56 10° N
Cosmos 372 Rocket 4.0 17:44:16 10° SSW 17:49:31 87° ESE 17:54:49 10° NNE
USA 234 3.9 17:43:17 10° NE 17:49:33 50° NNW 17:55:48 10° WSW
MSX 3.9 17:44:28 10° SSE 17:50:05 57° ENE 17:55:43 10° N
SMAP 3.0 17:46:41 10° SSE 17:51:19 87° ENE 17:56:01 10° NNW
AQUARIUS 4.2 17:47:33 10° SSE 17:52:02 89° ENE 17:56:34 10° NNW
Okean 3 4.2 17:49:06 10° SSW 17:53:20 57° W 17:57:34 10° N
SJ-12 4.1 17:49:20 10° S 17:53:24 79° WSW 17:57:31 10° NNW
Cosmos 2263 Rocket 3.9 17:50:35 10° WSW 17:55:26 29° NW 18:00:20 10° N
Thor Agena Rocket 3.7 17:51:19 10° NNE 17:56:31 83° WNW 18:01:46 10° SSW
CZ-3B DEB 2.1 17:54:51 10° SSW 17:58:13 58° SE 18:05:05 14° NE
Cosmos 1125 Rocket 4.3 17:53:36 10° SW 17:58:46 53° WNW 18:03:59 10° N
CZ-4 R/B 2.3 17:55:37 10° S 17:59:44 54° W 18:03:50 10° NNW
Cosmos 1346 Rocket 4.3 18:00:42 10° SE 18:02:56 18° E 18:02:56 18° E
Cosmos 1536 Rocket 4.1 18:01:01 10° SSE 18:05:08 38° E 18:09:13 10° NNE
Cosmos 494 Rocket 4.3 18:01:22 10° N 18:06:20 42° ENE 18:11:17 10° SE
Cosmos 1812 2.9 18:05:09 10° SSE 18:08:52 48° E 18:12:08 13° NNE
ATLAS 2AS CENTAUR R/B 3.0 18:01:53 10° NNW 18:09:55 61° NE 18:17:25 10° SE
SL-8 Rocket 3.9 18:03:51 10° N 18:10:03 89° E 18:16:12 10° S
YAOGAN 1 3.2 18:07:35 10° S 18:11:51 59° W 18:16:08 10° NNW
Meteor 1-12 Rocket 4.4 18:06:31 10° N 18:12:10 54° ENE 18:17:53 10° SSE
Cosmos 2251 Rocket 3.6 18:07:42 10° N 18:13:00 56° ENE 18:18:12 10° SE
Abrixas 4.3 18:16:09 10° NW 18:18:21 18° N 18:18:36 18° N
Cosmos 2366 rocket 3.9 18:13:10 10° N 18:19:33 78° E 18:25:52 10° S
Cosmos 1975 3.1 18:15:58 10° N 18:19:52 42° ENE 18:23:43 10° SSE
Cosmos 2218 Rocket 4.0 18:13:35 10° N 18:19:57 88° E 18:26:10 10° S
Cosmos 1844 Rocket 2.8 18:16:21 10° SSW 18:21:55 77° WNW 18:27:30 10° NNE
OTV 4 2.0 18:19:25 10° WSW 18:22:08 31° SSW 18:23:24 21° SSE
Cosmos 1844 3.6 18:23:21 10° SSW 18:28:54 90° WNW 18:33:29 16° NNE
SL-27 R/B 2.6 18:26:15 10° NNW 18:29:57 81° WSW 18:33:35 10° SSE
GEOS 3 Rocket 3.5 18:25:12 10° SE 18:30:20 86° NE 18:35:28 10° NW
SKYMED 2 3.5 18:27:56 11° NNE 18:32:12 88° ESE 18:36:32 10° SSW
DMSP B5D1-3 4.5 18:27:57 11° NNE 18:32:53 65° ESE 18:37:58 10° S
Cosmos 1455 Rocket 3.2 18:31:36 10° N 18:36:00 77° W 18:40:24 10° S
SL-8 R/B 4.0 18:33:23 10° SW 18:37:59 49° SE 18:39:03 41° ESE
ISS -2.7 18:35:14 10° WSW 18:38:27 48° NNW 18:38:49 45° N
BREEZE-M R/B 4.0 18:35:12 10° SW 18:45:40 82° SE 18:47:38 42° ENE
Cosmos 2278 Rocket 2.1 18:41:37 10° SSW 18:47:15 78° ESE 18:50:04 31° NNE
Meteor 1-13 Rocket 4.3 18:43:13 10° SSE 18:48:38 52° E 18:50:26 38° NE
Cosmos 1809 Rocket 4.3 18:46:02 10° N 18:52:14 78° E 18:58:21 10° SSE
Cosmos 1484 Rocket 4.1 18:51:32 10° SSW 18:55:06 39° W 18:58:38 10° NNW
Cosmos 1821 Rocket 4.2 18:49:30 10° N 19:01:32 - SSE 18:54:31 42° NE
Cosmos 2082 Rocket 3.0 19:07:18 10° NNW 19:10:50 35° N 19:10:50 35° N
Nadezhda 3 Rocket 4.0 19:08:42 10° S 19:14:53 81° W 19:21:10 10° N
COSMO-SKYMED 1 4.5 19:16:31 11° NNW 19:20:04 28° WNW 19:23:45 10° SW
Cosmos 1833 Rocket 4.0 19:15:31 10° NNW 19:18:13 27° N 19:18:13 27° N
ATLAS 2AS CENTAUR R/B 4.4 19:53:38 10° NW 20:00:29 33° WSW 20:06:55 10° S
FALCON 9 R/B 3.3 19:47:38 10° WSW 20:01:52 53° SSW 20:01:52 53° SSW
ATLAS 3B CENTAUR R/B 4.3 20:13:52 10° WSW 20:22:04 27° SSW 20:22:04 27° SSW
CZ-3B DEB 4.2 20:28:54 10° WNW 20:34:11 40° NNW 20:34:11 40° NNW
